[[{"header":{"parameterUnit":"m.s-1","parameterCategory":1,"la1":30.2991,"la2":30.254,"lo1":-89.0895,"lo2":-89.0444,"dy":0.0017,"dx":0.0017,"nx":28,"ny":28,"refTime":"2023-08-13T03:00:00:Z","depth":0,"parameterNumber":2,"parameterNumberName":"U-component_of_WINDS"},"data":[0,0,0,0,0,0,0,0,0,0,0,0,0,0,0,0,0,0,0,0,0,0,0,0,0,0,0,0,0,0,0,0,0,0,0,0,0,0,0,0,0,0,0,0,0,0,0,0,0,0,0,0,0,0,0,0,0,0,2.8299,2.8299,0,2.8345,2.8346,2.8346,2.8316,2.8315,2.8313,2.8312,2.8361,2.8363,2.8366,0,0,0,0,0,0,0,0,0,0,0,0,0,2.8187,2.8189,2.8299,2.8299,2.83,2.8345,2.8346,2.8346,2.8316,2.8315,2.8313,2.8311,2.836,2.8363,2.8366,0,0,0,0,0,0,0,0,0,0,0,0,0,2.8235,2.819,2.8298,2.829,2.829,2.8345,2.8346,2.8346,2.8317,2.8315,2.8313,2.8311,2.8359,2.8363,2.8367,2.8432,0,0,2.8378,2.838,0,0,0,0,0,0,0,0,2.8232,2.8239,2.8291,2.8291,2.8291,2.8323,2.8324,2.8375,2.8317,2.8307,2.8312,2.831,2.835,2.8354,2.8368,2.8435,2.8437,2.8379,2.8381,2.8383,2.8384,0,0,0,0,0,0,0,2.8229,2.8237,2.8317,2.8292,2.8292,2.8285,2.829,2.8334,2.8339,2.8307,2.8305,2.8311,2.8349,2.8364,2.8369,2.8437,2.8379,2.8382,2.8385,2.8386,2.8564,2.8566,0,0,0,0,0,0,2.8226,2.8234,2.8315,2.8318,2.8256,2.8289,2.8294,2.8315,2.8339,2.8341,2.8313,2.831,2.8358,2.8364,2.837,2.845,2.8383,2.8386,2.8389,2.8561,2.8564,2.8567,0,0,0,0,0,0,2.8223,2.8233,2.8314,2.8276,2.8285,2.8293,2.8317,2.8317,2.8331,2.8343,2.8344,2.8327,2.8357,2.8365,2.8418,2.8452,2.8388,2.8392,2.8558,2.8562,2.8565,2.861,0,0,0,0,0,0,2.822,2.8233,2.8257,2.8276,2.8288,2.8359,2.8319,2.8319,2.8338,2.8334,2.8356,2.8358,2.8356,2.8412,2.8422,2.8456,2.8395,2.8555,2.856,2.8564,2.8606,2.8615,2.8623,0,0,0,0,0,2.8216,2.8267,2.8258,2.8268,2.8318,2.8361,2.8368,2.8364,2.8341,2.8366,2.8374,2.8357,2.8447,2.8418,2.8428,2.8464,2.8553,2.8559,2.8564,2.8602,2.8613,2.8622,0,0,0,0,0,0,2.8251,2.8269,2.826,2.8318,2.8339,2.8356,2.8387,2.8376,2.8403,2.8399,2.8394,2.8399,2.8455,2.8465,2.8432,2.853,2.8496,2.8504,2.8522,2.8532,2.8541,2.8537,2.8398,0,0,0,0,0,2.8265,2.8299,2.8313,2.8364,2.8374,2.838,2.8398,2.8394,2.8415,2.8423,2.8435,2.8457,2.849,2.8512,2.8543,2.8607,2.8613,2.8638,2.8646,2.8653,2.866,2.8697,2.8708,2.8584,2.8584,2.8584,0,0,2.8295,2.831,2.8331,2.8371,2.8386,2.8422,2.8387,2.8425,2.8452,2.8429,2.848,2.849,2.8514,2.8574,2.8601,2.8584,2.8695,2.866,2.8665,2.8668,2.8703,2.8715,2.8726,2.8588,2.8587,2.8587,0,0,2.8368,2.8382,2.8426,2.8443,2.8467,2.847,2.8481,2.8501,2.8507,2.8558,2.8543,2.8575,2.8632,2.865,2.8666,2.875,2.8736,2.876,2.8804,2.8841,2.885,2.8859,2.889,2.8901,2.8767,2.8767,2.8767,0,2.8402,2.8455,2.845,2.8491,2.851,2.8492,2.8538,2.8554,2.8587,2.8601,2.8582,2.8654,2.8669,2.8733,2.8754,2.8768,2.8781,2.8757,2.8849,2.8858,2.8866,2.8895,2.8907,2.877,2.877,2.8769,2.8769,0,2.8496,2.8533,2.8566,2.8599,2.8622,2.8665,2.8668,2.8692,2.8687,2.8693,2.8747,2.8764,2.8799,2.8814,2.8809,2.8879,2.8868,2.8849,2.8815,2.8881,2.8908,2.8919,2.8774,2.8773,2.8772,2.8771,0,0,2.859,2.8622,2.8634,2.865,2.8676,2.8705,2.8749,2.8783,2.8804,2.8829,2.8865,2.8915,2.8899,2.8918,2.8915,2.8947,2.9014,2.8924,2.8925,2.8941,2.9094,2.9108,2.9121,2.9005,2.9007,2.9009,2.9092,0,2.8665,2.874,2.8739,2.8808,2.8843,2.8828,2.8866,2.8888,2.8895,2.8927,2.8935,2.8971,2.8946,2.8958,2.8989,2.8999,2.9044,2.8993,2.904,2.9042,2.9034,2.9135,2.9149,2.9226,2.9102,2.9104,2.9106,0,2.8762,2.879,2.8863,2.8887,2.8902,2.8935,2.8968,2.8999,2.9023,2.9027,2.905,2.9043,2.9088,2.9053,2.9117,2.9082,2.9102,2.911,2.9113,2.9117,2.9077,2.9142,2.9251,2.9263,2.9122,2.9121,2.912,0,2.8824,2.888,2.8932,2.8946,2.8974,2.8999,2.9012,2.9035,2.9056,2.9086,2.91,2.9134,2.9153,2.9181,2.9184,2.9158,2.9248,2.9213,2.9253,2.9253,2.9272,2.9271,2.9386,2.9285,2.9285,2.9285,2.9285,0,2.8907,2.8953,2.896,2.8992,2.9044,2.9043,2.9095,2.9106,2.9127,2.9161,2.9151,2.9184,2.9186,2.922,2.9223,2.9276,2.9285,2.929,2.929,2.9291,2.929,2.9303,2.9298,2.9288,2.9287,2.9287,2.9286,0,2.8985,2.8991,2.9047,2.907,2.9077,2.9115,2.9135,2.9166,2.9174,2.9218,2.9228,2.9241,2.9281,2.9287,2.9334,2.9336,2.94,2.9394,2.9391,2.9391,2.9431,2.9427,2.9558,2.9576,2.9463,2.9464,2.9465,0,2.9037,2.9073,2.91,2.9123,2.9138,2.9174,2.9197,2.9198,2.9222,2.9255,2.9283,2.9322,2.9353,2.9418,2.9432,2.9469,2.9464,2.9508,2.9469,2.947,2.9466,2.9463,2.9468,2.9515,2.9516,2.9517,2.9518,0,2.9131,2.9133,2.9166,2.9201,2.9228,2.9256,2.9282,2.9301,2.9307,2.9335,2.9376,2.94,2.9449,2.9489,2.9526,2.954,2.9531,2.953,2.9541,2.9542,2.9539,2.9542,2.9412,2.9527,2.9526,2.9525,2.9525,2.9524,2.9198,2.9229,2.9254,2.9292,2.9312,2.9337,2.9368,2.938,2.9415,2.9454,2.9454,2.95,2.9526,2.9574,2.9592,2.9629,2.9614,2.9631,2.9635,2.9639,2.9643,2.9534,2.9635,2.9635,2.9635,2.9635,2.9634,0,2.9291,2.9307,2.9342,2.9379,2.941,2.9399,2.9427,2.9454,2.9494,2.9519,2.9551,2.9599,2.9639,2.9656,2.9695,2.9721,2.9718,2.9731,2.9729,2.9733,2.9653,2.964,2.9733,2.9733,2.9733,2.9733,2.9733,2.9733,2.9344,2.9396,2.9402,2.9466,2.9481,2.9526,2.9544,2.9568,2.9588,2.9643,2.9675,2.9687,2.971,2.9751,2.9787,2.9791,2.9806,2.9822,2.9824,2.9749,2.9739,2.9729,2.9716,2.9825,2.9825,2.9901,2.9902,2.9902]},{"header":{"parameterUnit":"m.s-1","parameterCategory":1,"la1":30.2991,"la2":30.254,"lo1":-89.0895,"lo2":-89.0444,"dy":0.0017,"dx":0.0017,"nx":28,"ny":28,"refTime":"2023-08-13T03:00:00:Z","depth":0,"parameterNumber":3,"parameterNumberName":"V-component_of_WINDS"},"data":[0,0,0,0,0,0,0,0,0,0,0,0,0,0,0,0,0,0,0,0,0,0,0,0,0,0,0,0,0,0,0,0,0,0,0,0,0,0,0,0,0,0,0,0,0,0,0,0,0,0,0,0,0,0,0,0,0,0,-0.9899,-0.9899,0,-0.9877,-0.9877,-0.9876,-0.9846,-0.9846,-0.9845,-0.9845,-0.9822,-0.9822,-0.9822,0,0,0,0,0,0,0,0,0,0,0,0,0,-0.9917,-0.9916,-0.9899,-0.9899,-0.9898,-0.9877,-0.9877,-0.9876,-0.9846,-0.9846,-0.9845,-0.9845,-0.9822,-0.9822,-0.9822,0,0,0,0,0,0,0,0,0,0,0,0,0,-0.9903,-0.9916,-0.9899,-0.9881,-0.9879,-0.9877,-0.9877,-0.9876,-0.9847,-0.9846,-0.9845,-0.9844,-0.9822,-0.9822,-0.9822,-0.9836,0,0,-0.9821,-0.9821,0,0,0,0,0,0,0,0,-0.9904,-0.9903,-0.9884,-0.9882,-0.988,-0.9864,-0.9875,-0.9863,-0.9847,-0.9859,-0.9845,-0.9844,-0.9837,-0.9835,-0.9833,-0.9835,-0.9834,-0.9821,-0.9821,-0.9821,-0.9821,0,0,0,0,0,0,0,-0.9905,-0.9903,-0.989,-0.9884,-0.9881,-0.9874,-0.9872,-0.9872,-0.9852,-0.9858,-0.9856,-0.9853,-0.9835,-0.9833,-0.9832,-0.9833,-0.9821,-0.9821,-0.9821,-0.9821,-0.9849,-0.9849,0,0,0,0,0,0,-0.9909,-0.9904,-0.9891,-0.989,-0.989,-0.9875,-0.9872,-0.987,-0.9852,-0.9849,-0.9854,-0.9852,-0.9834,-0.9832,-0.9831,-0.9848,-0.9821,-0.9821,-0.9821,-0.9848,-0.9849,-0.985,0,0,0,0,0,0,-0.9909,-0.9908,-0.9892,-0.9896,-0.9894,-0.9875,-0.9873,-0.987,-0.9867,-0.9849,-0.9846,-0.9855,-0.9833,-0.9831,-0.9835,-0.9847,-0.9821,-0.982,-0.9847,-0.9848,-0.9849,-0.9882,0,0,0,0,0,0,-0.991,-0.9908,-0.9913,-0.9897,-0.9894,-0.9896,-0.9874,-0.987,-0.9867,-0.9864,-0.9849,-0.9846,-0.9832,-0.9836,-0.9835,-0.9846,-0.982,-0.9846,-0.9847,-0.9849,-0.9879,-0.9884,-0.9888,0,0,0,0,0,-0.991,-0.9922,-0.9913,-0.9911,-0.9899,-0.9897,-0.9895,-0.9879,-0.9868,-0.9873,-0.9862,-0.9847,-0.9846,-0.9837,-0.9836,-0.9847,-0.9845,-0.9847,-0.9849,-0.9878,-0.9883,-0.9887,0,0,0,0,0,0,-0.9938,-0.9919,-0.9909,-0.9916,-0.9908,-0.9892,-0.9897,-0.9885,-0.988,-0.9878,-0.9858,-0.9855,-0.9862,-0.9854,-0.9845,-0.9861,-0.9843,-0.9845,-0.9865,-0.987,-0.9874,-0.9877,-0.982,0,0,0,0,0,-0.9946,-0.9945,-0.9928,-0.9936,-0.9933,-0.9916,-0.9914,-0.9903,-0.9894,-0.9891,-0.988,-0.9873,-0.9871,-0.987,-0.9867,-0.9878,-0.9876,-0.9885,-0.9889,-0.9893,-0.9895,-0.9903,-0.9908,-0.9856,-0.9856,-0.9856,0,0,-0.996,-0.9949,-0.995,-0.9941,-0.9934,-0.9936,-0.9913,-0.9915,-0.9916,-0.9891,-0.9895,-0.9887,-0.9877,-0.9886,-0.9889,-0.988,-0.9909,-0.9895,-0.9898,-0.9898,-0.9906,-0.9911,-0.9915,-0.9858,-0.9857,-0.9857,0,0,-0.9987,-0.9978,-0.9985,-0.9979,-0.9969,-0.9958,-0.996,-0.9946,-0.994,-0.9943,-0.9926,-0.9927,-0.9923,-0.9918,-0.9915,-0.9943,-0.993,-0.9943,-0.9964,-0.9973,-0.9977,-0.998,-0.9992,-0.9997,-0.9945,-0.9945,-0.9945,0,-1.0006,-1.0007,-0.999,-0.9993,-0.9991,-0.9969,-0.9977,-0.9971,-0.9961,-0.996,-0.995,-0.9947,-0.9939,-0.9947,-0.9955,-0.9952,-0.9955,-0.9945,-0.9977,-0.9981,-0.9984,-0.9995,-1.0,-0.9947,-0.9946,-0.9946,-0.9946,0,-1.0032,-1.0033,-1.004,-1.0031,-1.0029,-1.0035,-1.0019,-1.002,-1.0009,-0.9999,-1.0005,-0.9995,-0.9991,-0.9992,-0.998,-0.9999,-0.9994,-0.9981,-0.9963,-0.9991,-1.0002,-1.0006,-0.9949,-0.9949,-0.9948,-0.9948,0,0,-1.0075,-1.0059,-1.0062,-1.0059,-1.0048,-1.0049,-1.0054,-1.0051,-1.0052,-1.0046,-1.0051,-1.005,-1.0039,-1.0036,-1.0024,-1.0031,-1.0057,-1.0017,-1.0016,-1.0026,-1.008,-1.0091,-1.0096,-1.0048,-1.0048,-1.0049,-1.0081,0,-1.0102,-1.011,-1.0096,-1.0107,-1.0109,-1.009,-1.0095,-1.0089,-1.0081,-1.0082,-1.0073,-1.0074,-1.0057,-1.0056,-1.0061,-1.0052,-1.0068,-1.005,-1.0054,-1.0054,-1.0058,-1.0101,-1.0113,-1.0144,-1.0085,-1.0086,-1.0086,0,-1.0133,-1.013,-1.0143,-1.0133,-1.0133,-1.0138,-1.0135,-1.0136,-1.013,-1.0123,-1.0121,-1.0108,-1.0114,-1.0096,-1.0105,-1.0093,-1.0094,-1.009,-1.0091,-1.0092,-1.0073,-1.0105,-1.0153,-1.0158,-1.0092,-1.0092,-1.0091,0,-1.0166,-1.0165,-1.0173,-1.0171,-1.0159,-1.0164,-1.0159,-1.0152,-1.0152,-1.015,-1.015,-1.0148,-1.0147,-1.0147,-1.0134,-1.0122,-1.0146,-1.0126,-1.0142,-1.0142,-1.0148,-1.0148,-1.0199,-1.0146,-1.0146,-1.0146,-1.0146,0,-1.0198,-1.0206,-1.0188,-1.0193,-1.0203,-1.0188,-1.0198,-1.0192,-1.0186,-1.019,-1.0173,-1.0178,-1.016,-1.0163,-1.0153,-1.0163,-1.0162,-1.0159,-1.0156,-1.0161,-1.0162,-1.0162,-1.0161,-1.0147,-1.0147,-1.0147,-1.0147,0,-1.0236,-1.0224,-1.0232,-1.0221,-1.0219,-1.0227,-1.0218,-1.0223,-1.0215,-1.0221,-1.0221,-1.0208,-1.0211,-1.0198,-1.0198,-1.0192,-1.0208,-1.0201,-1.021,-1.0209,-1.0226,-1.0226,-1.028,-1.0287,-1.0229,-1.0229,-1.023,0,-1.0258,-1.0265,-1.0255,-1.0257,-1.0254,-1.0257,-1.0257,-1.0243,-1.0244,-1.0239,-1.0245,-1.0247,-1.0247,-1.0253,-1.0244,-1.0245,-1.0239,-1.0258,-1.0239,-1.0245,-1.0242,-1.0243,-1.0245,-1.0263,-1.0263,-1.0264,-1.0264,0,-1.0299,-1.0293,-1.0294,-1.0294,-1.0296,-1.0295,-1.0292,-1.0295,-1.028,-1.0282,-1.0285,-1.0286,-1.0288,-1.0291,-1.029,-1.0286,-1.0274,-1.027,-1.0275,-1.028,-1.0287,-1.0286,-1.0223,-1.0269,-1.0269,-1.0269,-1.0268,-1.0268,-1.0331,-1.0337,-1.0332,-1.0335,-1.0332,-1.0331,-1.0336,-1.0329,-1.0332,-1.0332,-1.0323,-1.0329,-1.0325,-1.0324,-1.0321,-1.0326,-1.0318,-1.0323,-1.0324,-1.0327,-1.0331,-1.0285,-1.0326,-1.0326,-1.0326,-1.0325,-1.0325,0,-1.0372,-1.0369,-1.0371,-1.037,-1.0373,-1.0361,-1.0359,-1.0362,-1.0368,-1.0365,-1.0367,-1.0372,-1.0375,-1.0367,-1.037,-1.0376,-1.037,-1.0377,-1.0377,-1.0377,-1.0337,-1.0334,-1.0382,-1.0382,-1.0382,-1.0382,-1.0382,-1.0382,-1.0394,-1.0405,-1.0399,-1.0409,-1.0405,-1.0412,-1.0412,-1.0412,-1.041,-1.0417,-1.042,-1.0415,-1.0411,-1.0413,-1.0416,-1.0414,-1.0416,-1.0426,-1.0422,-1.0385,-1.0379,-1.0374,-1.0372,-1.0426,-1.0426,-1.0461,-1.0462,-1.0462]}]]